Location: Csohesd
(46.2500°N, 22.6167°E)
Time: 11:35:37
(UTC+00:00)

IRAS Rocket - Pass Details

Date: 21 October 2021
Orbit: 847 x 878 km, 100.1° (Epoch: 06 December)

Event Time Altitude Azimuth Distance (km) Brightness Sun altitude
Rises 16:46:04 0° 20° (NNE) 3,459 7.2 -13.4°
Reaches altitude 10° 16:48:32 10° 25° (NNE) 2,512 6.4 -13.8°
Maximum altitude 16:53:59 53° 102° (ESE) 1,046 4.3 -14.8°
Drops below altitude 10° 16:59:20 10° 179° (S) 2,476 6.6 -15.7°
Sets 17:01:45 0° 184° (S) 3,403 7.4 -16.1°
